Location: Eymir
(36.7333°N, 29.7833°E)
Time: 13:53:48
(UTC+00:00)

COSMO-SKYMED 1 - Visible Passes

Search period start: 11 April 2026 00:00
Search period end: 21 April 2026 00:00
Orbit: 576 x 578 km, 97.9° (Epoch: 11 April)

Date Brightness Start Highest point End Pass type
(mag) Time Alt. Az. Time Alt. Az. Time Alt. Az.
11 Apr 4.6 17:10:01 10° N 17:13:39 31° WNW 17:17:16 10° SW visible
12 Apr 4.8 17:14:03 10° NNW 17:17:33 28° WNW 17:21:05 10° SW visible
13 Apr 5.0 17:18:04 10° NNW 17:21:28 26° WNW 17:24:51 10° SW visible
14 Apr 6.3 02:31:35 10° E 02:32:46 11° ENE 02:33:57 10° NE visible
14 Apr 5.2 17:22:06 10° NNW 17:25:22 23° WNW 17:28:37 10° WSW visible
15 Apr 6.1 02:34:58 10° E 02:36:39 12° ENE 02:38:20 10° NE visible
15 Apr 5.4 17:26:09 10° NNW 17:29:16 21° WNW 17:32:21 10° WSW visible
16 Apr 6.0 02:38:29 10° E 02:40:31 14° ENE 02:42:35 10° NE visible
16 Apr 5.6 17:30:13 10° NNW 17:33:08 19° WNW 17:36:04 10° WSW visible
17 Apr 5.9 02:42:04 10° ESE 02:44:24 15° ENE 02:46:45 10° NNE visible
17 Apr 5.7 17:34:17 10° NNW 17:37:01 17° WNW 17:39:45 10° WSW visible
18 Apr 5.8 02:45:41 10° ESE 02:48:16 16° ENE 02:50:52 10° NNE visible
18 Apr 5.8 17:38:23 10° NNW 17:40:53 16° WNW 17:43:23 10° WSW visible
19 Apr 5.7 02:49:20 10° ESE 02:52:08 18° ENE 02:54:57 10° NNE visible
19 Apr 5.9 17:42:31 10° NNW 17:44:45 14° WNW 17:46:59 10° W visible
20 Apr 6.0 17:46:42 10° NW 17:48:36 13° WNW 17:50:32 10° W visible
